STARLINK-2064 (47671 NORAD) Tracking and Keplerian Element Data
This shows tracking and keplerian element data for the satellite.
Feedback or suggestion? Click here.
Element | Value |
Catalog | 47671 |
Name | STARLINK-2064 |
Epoch Orbit | 282 |
Epoch Day | 60.16668981 |
Epoch Year | 2021 |
RAAN | 36.8434 |
Inclination | 53.0497 |
Eccentricity | 0.0001455 |
Argument of Perigee | 98.4587 |
Mean Anonmoly | 16.5777 |
Mean Motion | 15.86517716 |
Decay Rate | 0.00055932 |
L1 | 1 47671U 21012BD 21060.16668981 .00055932 00000-0 21832-3 0 9998 |
L2 | 2 47671 53.0497 36.8434 0001455 98.4587 16.5777 15.86517716 2821 |
Live tracking and technical data element details for STARLINK-2064 (NORAD 47671). STARLINK-2064 can be tracked NOW for your location showing map with azimuth and elevation plus other details from your city location.
Track the satellite on the map from your city or location and see movement details for azimuth, elevation, latitude, longitude, range, height, and movement on the map or in text.
IsCatalogInMostPopularTable: catalog: 47671, numindb: 3
Update: records affected: 1
GetName: 47671 STARLINK-2064
Hit Count: updated at: Mon, 01 Mar 2021 17:07:06 GMT